Hourly Data Report for October 20, 2015

All times are specified in Local Standard Time (LST). Add 1 hour to adjust for Daylight Saving Time where and when it is observed.

WINNIPEG A CS
MANITOBA

49°55'00.000" N
97°14'58.000" W
238.70 m
502S001
71849
XWG

Download Data

Hourly Data (October 2015)
Hourly Data Report for October 20, 2015
Temp Definition
°C
Dew Point Temp Definition
°C
Rel Hum Definition
%
Wind Dir Definition
10's deg

Wind Spd Definition
km/h
Visibility Definition
km
Stn Press Definition
kPa
Hmdx Definition


Wind Chill Definition


Weather Definition


TIME
00:00 4.3 2.4 88 5 11   98.83     LegendNANA
01:00 4.2 2.8 90 5 10   98.87     LegendNANA
02:00 5.3 2.1 80 6 15   98.89     LegendNANA
03:00 5.6 1.9 77 7 11   98.92     LegendNANA
04:00 4.8 1.9 81 6 9   98.95     LegendNANA
05:00 4.3 1.5 82 5 10   99.01     LegendNANA
06:00 5.0 1.2 76 7 16   99.02     LegendNANA
07:00 4.9 0.7 74 10 17   99.05     LegendNANA
08:00 5.2 0.7 73 9 19   99.06     LegendNANA
09:00 5.7 0.8 71 10 20   99.06     LegendNANA
10:00 6.4 0.7 67 10 22   99.04     LegendNANA
11:00 7.2 1.2 66 10 18   99.05     LegendNANA
12:00 7.5 1.0 63 10 22   98.99     LegendNANA
13:00 9.6 1.4 57 11 21   98.93     LegendNANA
14:00 8.7 1.3 60 10 23   98.84     LegendNANA
15:00 9.6 0.9 55 9 23   98.77     LegendNANA
16:00 9.3 0.8 55 9 19   98.73     LegendNANA
17:00 8.1 0.0 57 8 20   98.69     LegendNANA
18:00 6.8 -1.0 57 9 21   98.64     LegendNANA
19:00 5.5 -1.0 63 9 15   98.65     LegendNANA
20:00 6.6 -1.0 59 10 19   98.61     LegendNANA
21:00 6.3 -1.0 60 8 11   98.62     LegendNANA
22:00 5.0 1.5 78 9 11   98.58     LegendNANA
23:00 4.9 1.9 81 9 12   98.53     LegendNANA

Notes on Data Quality.

Legend

  • E = Estimated
  • M = Missing
  • NA = Not Available
  • ‡ = Partner data that is not subject to review by the National Climate Archives
Date modified: